Weather History for Covington, KY

Change the Weather History Date:

Saturday, November 24, 2012

  Actual Average Record
Temperature  
Mean Temperature 27 °F 42 °F  
Max Temperature 35 °F 50 °F 70 °F (1931)
Min Temperature 19 °F 33 °F 5 °F (1950)
Degree Days  
Heating Degree Days 38 23  
Month to date heating degree days 512 448  
Since 1 July heating degree days 940 810  
Cooling Degree Days 0 0  
Month to date cooling degree days 0 0  
Year to date cooling degree days 1439 1121  
Moisture  
Dew Point 18 °F    
Average Humidity 68    
Maximum Humidity 84    
Minimum Humidity 51    
Precipitation  
Precipitation T in 0.13 in 1.45 in (1900)
Month to date precipitation 1.02 2.72  
Year to date precipitation 32.97 38.44  
Snow  
Snow T in 0.00 in 2.10 in (1938)
Month to date snowfall T 0.2  
Since 1 July snowfall T 0.6  
Since 1 September snowfall T 0.6  
Snow Depth 0.00 in    
Sea Level Pressure  
Sea Level Pressure 30.20 in    
Wind  
Wind Speed 7 mph (West)    
Max Wind Speed 14 mph    
Max Gust Speed 17 mph    
Visibility 10 miles    
Events      
T = Trace of Precipitation, MM = Missing Value Source: NWS Daily Summary

Daily Weather History Graph

Daily Weather History Graph

Search for Another Location

Airport:

Trip Planner

Search our weather history database for the weather conditions in past years. The results will help you decide how hot, cold, wet, or windy it might be!

Date:

Astronomy

Nov. 24, 2012 Rise Set
Actual Time 7:32 AM EST 5:18 PM EST
Civil Twilight 7:02 AM EST 5:47 PM EST
Nautical Twilight 6:30 AM EST 6:20 PM EST
Astronomical Twilight 5:58 AM EST 6:52 PM EST
Moon 3:01 PM EST (11/24) 3:49 AM EST (11/24)
Length of Visible Light 10h 45m
Length of Day
9h 46m
Waxing Gibbous, 87% of the Moon is Illuminated
Nov 24
Waxing Gibbous
Nov 28
Full
Dec 6
Last Quarter
Dec 13
New
Dec 20
First Quarter

Hourly Weather History & Observations

Time (EST) Temp. Windchill Dew Point Humidity Pressure Visibility Wind Dir Wind Speed Gust Speed Precip Events Conditions
12:52 AM 30.9 °F 21.2 °F 19.0 °F 61% 30.18 in 10.0 mi WNW 12.7 mph - N/A   Overcast
1:39 AM 30.2 °F 19.8 °F 19.4 °F 64% 30.17 in 10.0 mi NW 13.8 mph - N/A   Overcast
1:52 AM 30.0 °F 19.5 °F 18.0 °F 61% 30.18 in 10.0 mi NW 13.8 mph - N/A   Overcast
2:52 AM 28.9 °F 19.2 °F 17.1 °F 61% 30.19 in 10.0 mi NW 11.5 mph - N/A   Overcast
3:18 AM 28.4 °F 19.7 °F 17.6 °F 64% 30.18 in 10.0 mi West 9.2 mph - N/A   Overcast
3:52 AM 28.9 °F 20.4 °F 17.1 °F 61% 30.19 in 10.0 mi WNW 9.2 mph - N/A   Overcast
4:52 AM 28.9 °F 20.4 °F 18.0 °F 64% 30.19 in 10.0 mi West 9.2 mph - N/A   Overcast
5:52 AM 28.9 °F 20.4 °F 18.0 °F 64% 30.20 in 10.0 mi West 9.2 mph - N/A   Overcast
6:52 AM 28.9 °F 21.1 °F 18.0 °F 64% 30.21 in 10.0 mi West 8.1 mph - N/A   Overcast
7:52 AM 28.0 °F 20.0 °F 19.0 °F 69% 30.22 in 10.0 mi West 8.1 mph - N/A   Mostly Cloudy
8:52 AM 28.0 °F 20.0 °F 19.0 °F 69% 30.23 in 10.0 mi WSW 8.1 mph - N/A   Overcast
9:52 AM 30.0 °F 23.2 °F 19.9 °F 66% 30.24 in 10.0 mi WSW 6.9 mph - N/A   Overcast
10:52 AM 30.9 °F 22.8 °F 19.9 °F 64% 30.25 in 10.0 mi West 9.2 mph - N/A   Overcast
11:52 AM 32.0 °F 25.6 °F 19.0 °F 59% 30.24 in 10.0 mi WNW 6.9 mph - N/A   Overcast
12:52 PM 33.1 °F 25.5 °F 19.9 °F 59% 30.22 in 10.0 mi WNW 9.2 mph - N/A   Overcast
1:52 PM 33.1 °F 26.9 °F 19.0 °F 56% 30.20 in 10.0 mi NW 6.9 mph - N/A   Overcast
2:52 PM 33.1 °F 25.5 °F 18.0 °F 54% 30.20 in 10.0 mi WNW 9.2 mph - N/A   Overcast
3:52 PM 32.0 °F 23.6 °F 18.0 °F 56% 30.20 in 10.0 mi WNW 10.4 mph - N/A   Overcast
4:52 PM 32.0 °F 27.5 °F 18.0 °F 56% 30.20 in 10.0 mi WNW 4.6 mph - N/A   Mostly Cloudy
5:52 PM 30.0 °F 24.1 °F 18.0 °F 61% 30.20 in 10.0 mi West 5.8 mph - 0.00 in   Mostly Cloudy
6:52 PM 28.9 °F 25.2 °F 18.0 °F 64% 30.20 in 10.0 mi West 3.5 mph - 0.00 in   Scattered Clouds
7:52 PM 28.0 °F - 18.0 °F 66% 30.19 in 10.0 mi Calm Calm - N/A   Partly Cloudy
8:52 PM 24.1 °F - 17.1 °F 75% 30.18 in 10.0 mi Calm Calm - 0.00 in   Partly Cloudy
9:52 PM 24.1 °F - 18.0 °F 77% 30.16 in 9.0 mi Calm Calm - N/A   Partly Cloudy
10:52 PM 19.9 °F 13.4 °F 16.0 °F 85% 30.16 in 7.0 mi South 4.6 mph - 0.00 in   Partly Cloudy
11:52 PM 21.0 °F 16.2 °F 17.1 °F 85% 30.14 in 7.0 mi South 3.5 mph - N/A   Clear